Regional Weather Roundup
Issued by NWS

Home | Current Version | Previous Version | Text Only | Print | Product List | Glossary On
Versions: 1 2 3 4 5 6 7 8 9 10 11 12 13 14 15 16 17 18 19 20 21 22 23 24 25 26 27 28 29 30 31 32 33 34 35 36 37 38 39 40 41 42 43 44 45 46 47 48 49 50
000
ASUS44 KFWD 060515
RWRTX
NORTH TEXAS HOURLY WEATHER ROUNDUP
NATIONAL WEATHER SERVICE FORT WORTH TX
1100 PM CST THU MAR 05 2015

NOTE: "FAIR" INDICATES FEW OR NO CLOUDS BELOW 12,000 FEET WITH NO
SIGNIFICANT WEATHER AND/OR OBSTRUCTIONS TO VISIBILITY.

TXZ118-119-060600-
DALLAS/FORT WORTH METROPLEX

CITY           SKY/WX    TMP DP  RH WIND       PRES   REMARKS
DFW AIRPORT    CLEAR     30  21  69 S5        30.59S WCI  25
DALLAS LOVE    CLEAR     32  25  75 CALM      30.61S
FTW MEACHAM    CLEAR     33  23  66 CALM      30.59S
DAL-EXECUTIVE  FAIR      28  22  78 SW3       30.59F
FTW-ALLIANCE   CLEAR     28  22  78 CALM      30.59S
FTW-SPINKS     CLEAR     27  24  91 CALM      30.61F
ARLINGTON      CLEAR     26  22  84 CALM      30.60F
GRAND PRAIRIE  CLEAR     32  27  80 CALM      30.62F
ADDISON        CLEAR     32  23  69 CALM      30.61F
MESQUITE       CLEAR     30  26  84 CALM      30.61F
LANCASTER      CLEAR     28  22  78 CALM      30.62S
$$

TXZ091>094-102>105-117-120-121-131>134-060600-
NORTH CENTRAL TEXAS

CITY           SKY/WX    TMP DP  RH WIND       PRES   REMARKS
SHRMAN/DENISON CLEAR     31  26  80 CALM      30.59S
GAINESVILLE    CLEAR     30  23  73 CALM      30.60S
BOWIE          CLEAR     27  25  94 CALM      30.56F
BRIDGEPORT     CLEAR     28  25  86 CALM      30.60S
DECATUR        CLEAR     34  19  53 S5        30.57F WCI  30
DENTON         CLEAR     30  22  72 S3        30.60R
MCKINNEY       CLEAR     26  24  92 CALM      30.60R
GREENVILLE     CLEAR     30  27  86 CALM      30.60F
TERRELL        CLEAR     32  23  69 CALM      30.60F
WAXAHACHIE     CLEAR     28  26  92 CALM      30.61F
CLEBURNE       CLEAR     30  25  80 CALM      30.61R
GRANBURY       CLEAR     26  21  82 CALM      30.61F
$$

TXZ083>090-098>101-113>116-127>130-139>142-154-155-060600-
WESTERN NORTH TEXAS

CITY           SKY/WX    TMP DP  RH WIND       PRES   REMARKS
WICHITA FALLS  CLEAR     26  19  74 S8        30.55R WCI  18
WF-KICKAPOO    CLEAR     32  24  74 S7        30.57S WCI  25
VERNON         PTCLDY    30  20  65 S6        30.53S WCI  24
ABILENE        CLEAR     28  21  75 SE7       30.55R WCI  21
ABILENE-DYESS  CLEAR     27  22  82 SW3       30.53S
BRECKENRIDGE   CLEAR     32  23  70 SE8       30.57S WCI  25
GRAHAM         CLEAR     27  23  84 CALM      30.56S
MINERAL WELLS  CLEAR     30  21  69 S7        30.57F WCI  23
STEPHENVILLE   CLEAR     30  19  62 CALM      30.60S
COMANCHE       CLEAR     29  21  72 S3        30.58R
BROWNWOOD      PTCLDY    27  25  93 CALM      30.58S
COLEMAN        CLEAR     30  26  84 CALM      30.56S
BRADY          CLEAR     30  18  59 SE3       30.55R
$$

TXZ143>147-156>162-174-175-060600-
CENTRAL TEXAS

CITY           SKY/WX    TMP DP  RH WIND       PRES   REMARKS
WACO           CLEAR     28  22  78 N5        30.62R WCI  23
WACO-MCGREGOR  CLEAR     30  19  64 N7        30.62S WCI  23
HILLSBORO      CLEAR     27  21  76 CALM      30.61S
CORSICANA      CLEAR     31  23  72 N6        30.61S WCI  25
MEXIA          CLEAR     30  23  76 MISG      30.59F
HEARNE         CLEAR     28  24  83 N6        30.62S WCI  22
CAMERON        CLEAR     31  25  77 N5        30.61S WCI  26
TEMPLE         CLEAR     27  19  74 N5        30.60R WCI  21
KILLEEN        CLEAR     28  19  69 N8        30.59R WCI  20
KILLEEN-SKYLRK CLEAR     30  18  59 CALM      30.59R
FORT HOOD      CLEAR     27  22  79 N7        30.59R WCI  20
GATESVILLE     CLEAR     28  25  86 CALM      30.63R
HAMILTON       CLEAR     31  19  62 SE3       30.59R
LAMPASAS       CLEAR     26  23  87 CALM      30.58S
$$

TXZ095>097-106>112-122>126-135>138-148>153-164>167-060600-
EAST TEXAS

CITY           SKY/WX    TMP DP  RH WIND       PRES   REMARKS
PARIS          CLEAR     28  21  74 SW5       30.61R WCI  23
SULPHUR SPRNGS CLEAR     32  24  73 CALM      30.63S
MOUNT PLEASANT CLEAR     30  22  73 CALM      30.62S
GILMER         CLEAR     28  23  83 CALM      30.59F
MINEOLA        CLEAR     30  28  93 CALM      30.61F
TYLER          CLEAR     31  23  72 N3        30.58F
LONGVIEW       CLEAR     28  23  81 CALM      30.58F
MARSHALL       CLEAR     31  28  88 CALM      30.61F
ATHENS         CLEAR     30  25  80 CALM      30.59S
PALESTINE      CLEAR     30  26  83 CALM      30.60F
JACKSONVILLE   CLEAR     32  24  74 NE5       30.59R WCI  27
HENDERSON      CLEAR     28  26  91 CALM      30.59F
NACOGDOCHES    CLEAR     28  21  74 NE3       30.57F
LUFKIN         CLEAR     33  23  66 N3        30.57S
$$

SUPPLEMENTAL OBSERVATIONS (CENTRAL)

CITY           SKY/WX    TMP DP  RH WIND       PRES   REMARKS
$$

SUPPLEMENTAL OBSERVATIONS (WEST)

CITY           SKY/WX    TMP DP  RH WIND       PRES   REMARKS
$$

SUPPLEMENTAL OBSERVATIONS (EAST)

CITY           SKY/WX    TMP DP  RH WIND       PRES   REMARKS
$$

SUPPLEMENTAL OBSERVATIONS ARE A COLLECTION OF AUTOMATED INSTRUMENTS
THAT ARE MAINTAINED BY A VARIETY OF FEDERAL AND STATE AGENCIES.
CERTAIN ELEMENTS...SUCH AS HUMIDITY VALUES AND SUSTAINED WIND
SPEEDS...MAY BE APPROXIMATED.



USA.gov is the U.S. government's official web portal to all federal, state and local government web resources and services.